Powrót do katalogu

STARLINK-5756

AktywnyŁącznośćVLEO
NORAD 55598·PAYLOAD·🇺🇸 United States

Wystrzelony Feb 12, 2023 z Cape Canaveral Space Force Station

Loading…

Następne Przeloty (najbliższe 24 godziny)

TLE

ŚwieżeSource: CelesTrak SupGP

Epoka: Sep 14, 2026, 21:54 UTC

1 55598C 23020AF  26257.91298611 -.00025835  00000+0 -93552-3 0  2576
2 55598  43.0047   5.7309 0002136 281.8297 190.9847 15.27597318    12

Śledź STARLINK-5756 w czasie rzeczywistym z AllMySat

Download on the App Store